| time (UTC) | temp F | wind direction | speed knots | gust knots | rain 1hr in | rain 24hr in | rain mn in | humidity % | barometer mb |
| 20260504000223 | 53 | 233 | 2.6 | 7.8 | 0.00 | 0.00 | 0.00 | 61 | 1009.3 |
| 20260503235202 | 53 | 261 | 1.7 | 7.8 | 0.00 | 0.00 | 0.00 | 61 | 1009.4 |
| 20260503234202 | 53 | 246 | 2.6 | 10.4 | 0.00 | 0.00 | 0.00 | 62 | 1009.4 |
| 20260503233202 | 53 | 255 | 2.6 | 8.7 | 0.00 | 0.00 | 0.00 | 62 | 1009.5 |
| 20260503232202 | 53 | 270 | 4.3 | 13.9 | 0.00 | 0.00 | 0.00 | 64 | 1009.5 |
| 20260503231202 | 53 | 286 | 3.5 | 9.6 | 0.00 | 0.00 | 0.00 | 66 | 1009.7 |
| 20260503230202 | 53 | 288 | 4.3 | 7.8 | 0.00 | 0.00 | 0.00 | 66 | 1009.8 |
| 20260503225224 | 53 | 284 | 4.3 | 13.0 | 0.00 | 0.00 | 0.00 | 65 | 1009.8 |
| 20260503224202 | 53 | 268 | 3.5 | 9.6 | 0.00 | 0.00 | 0.00 | 65 | 1009.8 |
| 20260503223204 | 53 | 288 | 5.2 | 10.4 | 0.00 | 0.00 | 0.00 | 63 | 1009.9 |
| 20260503222223 | 52 | 270 | 6.1 | 13.9 | 0.00 | 0.00 | 0.00 | 64 | 1009.8 |
| 20260503221202 | 52 | 264 | 5.2 | 12.2 | 0.00 | 0.00 | 0.00 | 66 | 1009.9 |
| 20260503220201 | 52 | 282 | 6.1 | 15.6 | 0.00 | 0.00 | 0.00 | 65 | 1009.8 |
| 20260503215202 | 52 | 260 | 7.0 | 13.9 | 0.00 | 0.00 | 0.00 | 65 | 1009.7 |
| 20260503214202 | 52 | 264 | 4.3 | 18.2 | 0.00 | 0.00 | 0.00 | 65 | 1009.6 |
| 20260503213202 | 52 | 270 | 3.5 | 10.4 | 0.00 | 0.00 | 0.00 | 65 | 1009.5 |
| 20260503211203 | 52 | 271 | 5.2 | 15.6 | 0.00 | 0.00 | 0.00 | 65 | 1009.4 |
| 20260503210202 | 51 | 258 | 3.5 | 13.0 | 0.00 | 0.00 | 0.00 | 65 | 1009.5 |
| 20260503205201 | 51 | 244 | 3.5 | 13.0 | 0.00 | 0.00 | 0.00 | 64 | 1009.7 |
| 20260503203203 | 52 | 219 | 3.5 | 11.3 | 0.00 | 0.00 | 0.00 | 63 | 1009.8 |
| 20260503202202 | 52 | 270 | 4.3 | 18.2 | 0.00 | 0.00 | 0.00 | 63 | 1009.9 |
| 20260503201203 | 53 | 237 | 3.5 | 13.0 | 0.00 | 0.00 | 0.00 | 62 | 1010.0 |
| 20260503200204 | 53 | 263 | 5.2 | 11.3 | 0.00 | 0.00 | 0.00 | 61 | 1010.2 |
| 20260503195205 | 54 | 245 | 4.3 | 16.5 | 0.00 | 0.00 | 0.00 | 61 | 1010.4 |
| 20260503194202 | 54 | 218 | 3.5 | 11.3 | 0.00 | 0.00 | 0.00 | 60 | 1010.4 |
| 20260503193223 | 54 | 256 | 5.2 | 13.9 | 0.00 | 0.00 | 0.00 | 60 | 1010.6 |
| 20260503192203 | 53 | 269 | 5.2 | 13.0 | 0.00 | 0.00 | 0.00 | 60 | 1010.9 |
| 20260503191202 | 53 | 241 | 5.2 | 14.8 | 0.00 | 0.00 | 0.00 | 59 | 1011.0 |
| 20260503190203 | 53 | 281 | 7.8 | 16.5 | 0.00 | 0.00 | 0.00 | 58 | 1011.1 |
| 20260503185203 | 54 | 253 | 5.2 | 20.0 | 0.00 | 0.00 | 0.00 | 56 | 1011.2 |
| 20260503184202 | 54 | 277 | 6.1 | 16.5 | 0.00 | 0.00 | 0.00 | 56 | 1011.3 |
| 20260503183202 | 54 | 254 | 7.0 | 15.6 | 0.00 | 0.00 | 0.00 | 55 | 1011.5 |
| 20260503182205 | 55 | 238 | 4.3 | 12.2 | 0.00 | 0.00 | 0.00 | 52 | 1011.6 |
| 20260503181202 | 54 | 252 | 4.3 | 10.4 | 0.00 | 0.00 | 0.00 | 55 | 1011.6 |
| 20260503180202 | 53 | 227 | 4.3 | 13.9 | 0.00 | 0.00 | 0.00 | 54 | 1011.8 |
| 20260503175202 | 53 | 219 | 3.5 | 10.4 | 0.00 | 0.00 | 0.00 | 59 | 1011.9 |
| 20260503174224 | 51 | 242 | 3.5 | 10.4 | 0.00 | 0.00 | 0.00 | 60 | 1012.2 |
| 20260503173202 | 51 | 255 | 2.6 | 9.6 | 0.00 | 0.00 | 0.00 | 61 | 1012.3 |
| 20260503172203 | 52 | 228 | 3.5 | 8.7 | 0.00 | 0.00 | 0.00 | 64 | 1012.6 |
| 20260503171225 | 52 | 227 | 3.5 | 10.4 | 0.00 | 0.00 | 0.00 | 62 | 1012.6 |
| 20260503170202 | 51 | 222 | 3.5 | 13.9 | 0.00 | 0.00 | 0.00 | 60 | 1012.7 |
| 20260503160203 | 51 | 238 | 3.5 | 7.0 | 0.00 | 0.00 | 0.00 | 58 | 1013.4 |
| 20260503150202 | 49 | 242 | 4.3 | 10.4 | 0.00 | 0.00 | 0.00 | 64 | 1013.8 |
| 20260503140204 | 47 | 269 | 5.2 | 13.9 | 0.00 | 0.00 | 0.00 | 75 | 1014.0 |
| 20260503131202 | 45 | 265 | 3.5 | 10.4 | 0.00 | 0.00 | 0.00 | 80 | 1014.2 |
| 20260503130223 | 44 | 211 | 2.6 | 7.8 | 0.00 | 0.00 | 0.00 | 81 | 1014.2 |
| 20260503120202 | 38 | 235 | 0.9 | 2.6 | 0.00 | 0.00 | 0.00 | 89 | 1014.3 |
| 20260503110225 | 32 | 242 | 0.0 | 0.0 | 0.00 | 0.00 | 0.00 | 89 | 1014.4 |
| 20260503100204 | 30 | 242 | 0.0 | 0.0 | 0.00 | 0.00 | 0.00 | 88 | 1014.3 |
| 20260503090202 | 30 | 242 | 0.0 | 0.0 | 0.00 | 0.00 | 0.00 | 87 | 1014.6 |
| 20260503081201 | 31 | 242 | 0.0 | 0.0 | 0.00 | 0.00 | 0.00 | 86 | 1014.7 |
| 20260503080204 | 31 | 242 | 0.0 | 0.0 | 0.00 | 0.00 | 0.00 | 86 | 1014.7 |
| 20260503072203 | 31 | 242 | 0.0 | 0.0 | 0.00 | 0.00 | 0.00 | 85 | 1014.6 |
| 20260503071225 | 31 | 242 | 0.0 | 0.0 | 0.00 | 0.00 | 0.00 | 84 | 1014.6 |
| 20260503070226 | 31 | 242 | 0.0 | 0.0 | 0.00 | 0.00 | 0.00 | 84 | 1014.5 |
| 20260503060204 | 33 | 242 | 0.0 | 0.0 | 0.00 | 0.00 | 0.00 | 83 | 1014.9 |
| 20260503054202 | 34 | 242 | 0.0 | 0.0 | 0.00 | 0.00 | 0.00 | 83 | 1014.9 |
| 20260503053202 | 34 | 242 | 0.0 | 0.0 | 0.00 | 0.00 | 0.00 | 82 | 1014.9 |
| 20260503052203 | 34 | 242 | 0.0 | 0.0 | 0.00 | 0.00 | 0.00 | 82 | 1015.0 |
| 20260503051204 | 35 | 242 | 0.0 | 0.0 | 0.00 | 0.00 | 0.00 | 81 | 1015.1 |
| 20260503050202 | 35 | 242 | 0.0 | 0.0 | 0.00 | 0.00 | 0.00 | 81 | 1015.2 |
| 20260503045203 | 36 | 242 | 0.0 | 0.0 | 0.00 | 0.00 | 0.00 | 80 | 1015.1 |
| 20260503044202 | 36 | 242 | 0.0 | 0.0 | 0.00 | 0.00 | 0.00 | 80 | 1015.2 |
| 20260503043223 | 37 | 242 | 0.0 | 0.0 | 0.00 | 0.00 | 0.00 | 79 | 1015.3 |
| 20260503042202 | 37 | 242 | 0.0 | 0.0 | 0.00 | 0.00 | 0.00 | 79 | 1015.3 |
| 20260503041202 | 38 | 242 | 0.0 | 0.0 | 0.00 | 0.00 | 0.00 | 78 | 1015.4 |
| 20260503040224 | 39 | 242 | 0.0 | 0.0 | 0.00 | 0.00 | 0.00 | 78 | 1015.4 |
| 20260503035202 | 39 | 242 | 0.0 | 0.0 | 0.00 | 0.00 | 0.00 | 78 | 1015.4 |
| 20260503034202 | 40 | 242 | 0.0 | 0.0 | 0.00 | 0.00 | 0.00 | 78 | 1015.4 |
| 20260503033223 | 40 | 242 | 0.0 | 0.0 | 0.00 | 0.00 | 0.00 | 78 | 1015.4 |
| 20260503032203 | 40 | 242 | 0.0 | 0.0 | 0.00 | 0.00 | 0.00 | 77 | 1015.4 |
| 20260503031202 | 40 | 242 | 0.0 | 0.0 | 0.00 | 0.00 | 0.00 | 76 | 1015.4 |
| 20260503030202 | 40 | 242 | 0.0 | 0.0 | 0.00 | 0.00 | 0.00 | 75 | 1015.5 |
| 20260503025203 | 41 | 242 | 0.0 | 0.0 | 0.00 | 0.00 | 0.00 | 75 | 1015.6 |
| 20260503024202 | 41 | 242 | 0.0 | 0.0 | 0.00 | 0.00 | 0.00 | 74 | 1015.6 |
| 20260503023204 | 41 | 242 | 0.0 | 0.0 | 0.00 | 0.00 | 0.00 | 73 | 1015.6 |
| 20260503022202 | 41 | 242 | 0.0 | 0.0 | 0.00 | 0.00 | 0.00 | 74 | 1015.7 |
| 20260503021204 | 41 | 242 | 0.0 | 1.7 | 0.00 | 0.00 | 0.00 | 75 | 1015.8 |
| 20260503020202 | 41 | 241 | 0.0 | 0.9 | 0.00 | 0.00 | 0.00 | 74 | 1015.8 |
| 20260503015203 | 41 | 242 | 0.0 | 2.6 | 0.00 | 0.00 | 0.00 | 74 | 1015.8 |
| 20260503014202 | 41 | 241 | 0.9 | 2.6 | 0.00 | 0.00 | 0.00 | 74 | 1015.8 |
| 20260503013205 | 41 | 241 | 0.9 | 4.3 | 0.00 | 0.00 | 0.00 | 74 | 1015.8 |
| 20260503012245 | 41 | 288 | 1.7 | 6.1 | 0.00 | 0.00 | 0.00 | 74 | 1015.9 |
| 20260503011202 | 41 | 283 | 3.5 | 7.0 | 0.00 | 0.00 | 0.00 | 74 | 1015.8 |
| 20260503010202 | 41 | 291 | 1.7 | 6.1 | 0.00 | 0.00 | 0.00 | 73 | 1015.8 |
| 20260503005202 | 41 | 262 | 0.9 | 4.3 | 0.00 | 0.00 | 0.00 | 73 | 1015.7 |
| 20260503004224 | 41 | 284 | 1.7 | 7.0 | 0.00 | 0.00 | 0.00 | 73 | 1015.7 |
| 20260503003201 | 42 | 301 | 0.9 | 5.2 | 0.00 | 0.00 | 0.00 | 72 | 1015.5 |
| 20260503002223 | 42 | 265 | 0.9 | 3.5 | 0.00 | 0.00 | 0.00 | 72 | 1015.4 |
| 20260503001202 | 42 | 249 | 0.9 | 6.1 | 0.00 | 0.00 | 0.00 | 71 | 1015.4 |